Location: ????????
(54.9045°N, 39.1041°E)
Time: 14:55:48
(UTC+00:00)

Cosmos 1092 Rocket - Pass Details

Date: 14 April 2024
Orbit: 955 x 993 km, 83.0° (Epoch: 28 May)

Event Time Altitude Azimuth Distance (km) Brightness Sun altitude
Exits shadow 00:41:52 - 186° (S) 2,934 6.1 -13.5°
Reaches altitude 10° 00:42:33 10° 186° (S) 2,681 5.9 -13.4°
Maximum altitude 00:48:41 86° 98° (E) 967 4.0 -12.7°
Drops below altitude 10° 00:54:53 10° 12° (NNE) 2,705 7.1 -12.0°
Sets 00:57:23 0° 12° (NNE) 3,659 7.8 -11.7°
